Location: Dappach
(48.9767°N, 9.6998°E)
Time: 05:06:54
(UTC+00:00)

COSMOS 2428 - Pass Details

Date: 15 August 2024
Orbit: 842 x 857 km, 70.9° (Epoch: 16 September)

Event Time Altitude Azimuth Distance (km) Brightness Sun altitude
Exits shadow 23:16:45 23° 93° (E) 1,750 4.2 -27.3°
Drops below altitude 10° 23:20:34 10° 52° (NE) 2,486 5.6 -27.4°
Sets 23:23:29 0° 38° (NE) 3,430 6.6 -27.4°
